Location: Étouvelles
(49.5207°N, 3.5808°E)
Time: 08:29:22
(UTC+00:00)

CZ-4 R/B - Pass Details

Date: 03 February 2023
Orbit: 526 x 587 km, 97.7° (Epoch: 24 March)

Event Time Altitude Azimuth Distance (km) Brightness Sun altitude
Rises 17:54:45 0° 137° (SE) 2,805 4.6 -11.7°
Reaches altitude 10° 17:57:06 10° 127° (SE) 1,902 3.7 -12.0°
Maximum altitude 18:00:41 29° 67° (ENE) 1,065 2.2 -12.6°
Drops below altitude 10° 18:04:14 10° 6° (N) 1,885 3.9 -13.2°
Sets 18:06:33 0° 356° (N) 2,776 4.9 -13.6°
